Flag for U.S.A. Weather past 2 weeks in Cincinnati, Ohio, U.S.A.

Now
48 °F

Light rain. Fog.


Feels Like: 42 °F
Forecast: 22 / 44 °F
Wind: 14 mph from West

Location: Cincinnati Municipal Airport Lunken Field

Current Time: Mar 3, 2015 at 7:27:06 PM

Latest Report: Mar 3, 2015 at 6:53 PM


Visibility: 5 mi

Pressure: 29.81 "Hg

Humidity: 100%

Dew point: 48 °F

Location of CincinnatiLocation

Historic Weather in Cincinnati — Graph

°F

Cincinnati temperature yesterday

Maximum temperature yesterday: 34 °F (at 4:53 PM)
Minimum temperature yesterday: 22 °F (at 7:53 AM)
Average temperature yesterday: 28 °F

Past Weeks' High & Low Weather Summary

 TemperatureHumidityPressure
High47 °F (Mar 3, 4:53 PM)100% (Feb 17, 9:53 AM)30.80 "Hg (Feb 17, 9:53 AM)
Low-14 °F (Feb 20, 4:53 AM)39% (Feb 20, 6:53 PM)29.79 "Hg (Mar 3, 3:53 PM)
Average19 °F69%30.28 "Hg
* Reported Feb 16 5:53 PM — Mar 3 5:53 PM, Cincinnati, Weather by CustomWeather, © 2015

Note: Actual official high and low records may vary slightly from our data, if they occured in-between our weather recording intervals... More about our weather records

Advertising

Cincinnati weather history for previous 24 hours

 ConditionsComfort  
Time TempWeatherWind HumidityBarometerVisibility
5:53 PM
Tue, Mar 3
45 °FCloudy.9 mph100%29.79 "Hg7 mi
4:53 PM47 °FHeavy rain. Fog.5 mph100%29.79 "Hg1 mi
3:53 PM44 °FRain. Fog.5 mph100%29.79 "Hg1 mi
3:00 PM42 °FHeavy rain. Fog.5 mph100%29.79 "Hg1 mi
1:53 PM38 °FLight rain. Fog.7 mph97%29.85 "Hg3 mi
12:53 PM35 °FLight rain. Fog.8 mph96%29.90 "Hg4 mi
11:53 AM33 °FLight rain. Fog.6 mph96%29.96 "Hg3 mi
10:53 AM33 °FLight rain. Overcast.5 mph82%30.02 "Hg3 mi
9:53 AM32 °FIce fog.3 mph73%30.06 "Hg8 mi
8:53 AM32 °FOvercast.No wind64%30.12 "Hg10 mi
7:53 AM31 °FOvercast.No wind67%30.13 "Hg10 mi
6:53 AM29 °FPassing clouds.No wind66%30.12 "Hg10 mi
5:53 AM27 °FOvercast.5 mph72%30.17 "Hg10 mi
4:53 AM27 °FClear.3 mph69%30.23 "Hg10 mi
3:53 AM26 °FClear.3 mph69%30.26 "Hg10 mi
2:53 AM26 °FClear.5 mph66%30.30 "Hg10 mi
1:53 AM26 °FClear.3 mph63%30.31 "Hg10 mi
12:53 AM26 °FClear.6 mph63%30.32 "Hg10 mi
11:53 PM
Mon, Mar 2
26 °FClear.6 mph66%30.37 "Hg10 mi
10:53 PM27 °FPassing clouds.3 mph63%30.41 "Hg10 mi
9:53 PM26 °FClear.7 mph69%30.42 "Hg10 mi
8:53 PM28 °FPassing clouds.3 mph61%30.45 "Hg10 mi
7:53 PM28 °FClear.5 mph61%30.48 "Hg10 mi
Weather by CustomWeather, © 2015

See weather overviewHow to use our weather pages